Regional Weather Roundup
Issued by NWS Sioux Falls, SD

Home | Current Version | Previous Version | Text Only | Print | Product List | Glossary Off
Versions: 1 2 3 4 5 6 7 8 9 10 11 12 13 14 15 16 17 18 19 20 21 22 23 24 25 26 27 28 29 30 31 32 33 34 35 36 37 38 39 40 41 42 43 44 45 46 47 48 49 50

000
ASUS43 KFSD 212210
RWRFSD

WEATHER ROUNDUP FOR SE SOUTH DAKOTA/SW MINNESOTA/NW IOWA
NATIONAL WEATHER SERVICE SIOUX FALLS SD
400 PM CST SAT JAN 21 2017

NOTE: "FAIR" INDICATES FEW OR NO CLOUDS BELOW 12,000 FEET WITH NO
SIGNIFICANT WEATHER AND OR OBSTRUCTIONS TO VISIBILITY.


SDZ038>040-050-052>070-212300-
SOUTHEAST SOUTH DAKOTA

CITY           SKY/WX    TMP DP  RH WIND       PRES   REMARKS
BROOKINGS      CLOUDY    32  31  96 W7        29.40R WCI  26
CHAMBERLAIN    CLOUDY    38  33  81 NW8       29.45R
HURON          CLOUDY    31  28  89 NW5       29.44R WCI  26
MADISON        CLOUDY    28  28 100 W9          N/A  WCI  20
MITCHELL       CLOUDY    33  30  88 W8        29.46R WCI  26
SIOUX FALLS    CLOUDY    32  29  88 W10       29.43R WCI  24
WINNER         FAIR      46  32  58 NW12      29.44R
YANKTON        MOSUNNY   37  30  75 NW9       29.44R
$$

MNZ071-072-080-081-089-090-097-098-212300-
SOUTHWEST MINNESOTA

CITY           SKY/WX    TMP DP  RH WIND       PRES   REMARKS
FAIRMONT       CLOUDY    38  37  97 SW5       29.42R FOG
JACKSON        FOG       34  34 100 SW8       29.41R VSB 3/4 WCI  27
LUVERNE        CLOUDY    30  30 100 W7        29.43R WCI  23
MARSHALL       CLOUDY    37  36  96 E3        29.41R FOG
MONTEVIDEO     FOG       34  34 100 SE3       29.43R VSB<1/4
PIPESTONE      CLOUDY    32  32 100 W9        29.40R FOG     WCI  24
REDWOOD FALLS  FOG       36  35  96 E3        29.41R VSB 1/4
TRACY          CLOUDY    38  38 100 CALM      29.40R FOG
WINDOM         CLOUDY    37  37 100 SW5       29.40R FOG
WORTHINGTON    CLOUDY    32  32 100 SW14      29.41R WCI  22
$$

IAZ001>003-012>014-020>022-031-032-NEZ013-014-SDZ071-212300-
NORTHWEST IOWA

CITY           SKY/WX    TMP DP  RH WIND       PRES   REMARKS
CHEROKEE       PTSUNNY   38  36  92 W12       29.45R
DENISON        MOSUNNY   45  39  81 W7        29.43R
ESTHERVILLE    FOG       37  37 100 SW8       29.41R VSB 1/2
LE MARS        CLOUDY    37  34  87 W8        29.46R
ORANGE CITY    CLOUDY    34  30  86 W9        29.44R WCI  26
SHELDON        CLOUDY    32  32 100 W16       29.43R WCI  21
SIOUX CITY     SUNNY     43  37  79 N9        29.44S
SPENCER        CLOUDY    35  33  92 W12       29.43R WCI  27
STORM LAKE     PTSUNNY   37  36  93 W10       29.44R
$$

ABBREVIATIONS USED IN REMARKS
   TC - TEMPERATURE IN CELSIUS
  WCI - WIND CHILL INDEX
   HX - HEAT INDEX
  VSB - VISIBILITY





USA.gov is the U.S. government's official web portal to all federal, state and local government web resources and services.